Fort Pierce, FL

3:24 AM EST on December 10, 2016 (GMT -0500)
Saint Lucie County International

Weather History for KFPR - February, 2012

Change the Weather History Date:

Friday, February 3, 2012

  Actual Average Record
Temperature  
Mean Temperature 68 °F -  
Max Temperature 75 °F 74 °F 87 °F (1933)
Min Temperature 61 °F 53 °F 33 °F (1976)
Cooling Degree Days 3    
Growing Degree Days 18 (Base 50)    
Moisture  
Dew Point 62 °F    
Average Humidity 77    
Maximum Humidity 100    
Minimum Humidity 60    
Precipitation  
Precipitation 0.00 in - - ()
Sea Level Pressure  
Sea Level Pressure 30.19 in    
Wind  
Wind Speed 5 mph (ENE)    
Max Wind Speed 16 mph    
Max Gust Speed 25 mph    
Visibility 9 miles    
Events      
Averages and records for this station are not official NWS values.
T = Trace of Precipitation, MM = Missing Value Source: NWS Daily Summary

Daily Weather History Graph

Daily Weather History Graph

Search for Another Location

Airport or City:

Trip Planner

Search our weather history database for the weather conditions in past years. The results will help you decide how hot, cold, wet, or windy it might be!

Date:

Astronomy

Feb. 03, 2012 Rise Set
Actual Time 7:07 AM EST 6:03 PM EST
Civil Twilight 6:42 AM EST 6:28 PM EST
Nautical Twilight 6:14 AM EST 6:56 PM EST
Astronomical Twilight 5:47 AM EST 7:23 PM EST
Moon 2:14 PM EST (2/3) 3:30 AM EST (2/3)
Length of Visible Light 11h 45m
Length of Day
10h 56m
Waxing Gibbous, 81% of the Moon is Illuminated
Feb 3
Waxing Gibbous
Feb 7
Full
Feb 14
Last Quarter
Feb 21
New
Feb 29
First Quarter

Hourly Weather History & Observations

Time (EST) Temp. Dew Point Humidity Pressure Visibility Wind Dir Wind Speed Gust Speed Precip Events Conditions
12:53 AM 64.0 °F 63.0 °F 96% 30.16 in 7.0 mi Calm Calm - N/A   Mostly Cloudy
1:53 AM 62.1 °F 61.0 °F 96% 30.16 in 7.0 mi Calm Calm - N/A   Clear
2:13 AM 62.6 °F 60.8 °F 94% 30.15 in 2.5 mi Calm Calm - N/A   Clear
2:22 AM 62.6 °F 60.8 °F 94% 30.15 in 6.0 mi Calm Calm - N/A   Clear
2:53 AM 61.0 °F 60.1 °F 97% 30.14 in 4.0 mi Calm Calm - N/A   Clear
3:53 AM 61.0 °F 60.1 °F 97% 30.14 in 9.0 mi Calm Calm - N/A   Partly Cloudy
4:19 AM 62.6 °F 62.6 °F 100% 30.14 in 10.0 mi Calm Calm - N/A   Mostly Cloudy
4:34 AM 64.4 °F 62.6 °F 94% 30.14 in 10.0 mi North 3.5 mph - N/A   Scattered Clouds
4:53 AM 68.0 °F 64.0 °F 87% 30.14 in 10.0 mi NE 3.5 mph - N/A   Mostly Cloudy
5:53 AM 71.1 °F 64.0 °F 78% 30.15 in 10.0 mi ENE 6.9 mph - N/A   Overcast
6:53 AM 71.1 °F 63.0 °F 75% 30.17 in 10.0 mi East 8.1 mph - N/A   Partly Cloudy
7:53 AM 72.0 °F 62.1 °F 71% 30.19 in 10.0 mi East 11.5 mph - N/A   Mostly Cloudy
8:53 AM 73.0 °F 63.0 °F 71% 30.23 in 10.0 mi East 10.4 mph 19.6 mph N/A   Scattered Clouds
9:53 AM 73.9 °F 61.0 °F 64% 30.25 in 10.0 mi East 12.7 mph - N/A   Mostly Cloudy
10:53 AM 75.0 °F 62.1 °F 64% 30.24 in 10.0 mi East 15.0 mph - N/A   Mostly Cloudy
11:53 AM 75.0 °F 60.1 °F 60% 30.22 in 10.0 mi East 16.1 mph 25.3 mph N/A   Clear
12:53 PM 73.9 °F 64.0 °F 71% 30.21 in 10.0 mi East 10.4 mph 17.3 mph N/A   Mostly Cloudy
1:04 PM 75.2 °F 64.4 °F 69% 30.20 in 10.0 mi East 9.2 mph - N/A   Mostly Cloudy
1:53 PM 73.9 °F 63.0 °F 68% 30.19 in 10.0 mi East 12.7 mph - 0.00 in   Mostly Cloudy
2:53 PM 73.9 °F 62.1 °F 66% 30.17 in 10.0 mi East 13.8 mph - N/A   Mostly Cloudy
3:53 PM 73.9 °F 62.1 °F 66% 30.17 in 10.0 mi East 13.8 mph - N/A   Partly Cloudy
4:53 PM 73.0 °F 61.0 °F 66% 30.18 in 10.0 mi East 10.4 mph 19.6 mph N/A   Scattered Clouds
5:53 PM 72.0 °F 59.0 °F 64% 30.20 in 10.0 mi East 10.4 mph - N/A   Clear
6:53 PM 72.0 °F 60.1 °F 66% 30.21 in 10.0 mi East 10.4 mph - N/A   Clear
7:53 PM 72.0 °F 61.0 °F 68% 30.21 in 10.0 mi East 11.5 mph - N/A   Clear
8:53 PM 72.0 °F 61.0 °F 68% 30.22 in 10.0 mi East 10.4 mph - N/A   Partly Cloudy
9:53 PM 71.1 °F 62.1 °F 73% 30.22 in 10.0 mi East 11.5 mph - N/A   Mostly Cloudy
10:53 PM 72.0 °F 62.1 °F 71% 30.21 in 10.0 mi East 11.5 mph - N/A   Overcast
11:53 PM 72.0 °F 62.1 °F 71% 30.20 in 10.0 mi East 9.2 mph - 0.00 in   Overcast